sat.trackr.live / text

‹ back to catalog

PROBA-2

NORAD 36037 · 2009-059B

PAYLOAD ACTIVE UNKNOWN

§ Identity

Operator
Country
ESA
Launch date
2009-11-02
Launch site
PLMSC
Launch vehicle
Mass (kg)
RCS (m²)
0.44

Purposes: tech_demo

External: N2YO · Heavens-Above · Gunter

§ Orbital elements

Epoch: 2026-05-25T01:30:46.891872Z

Period
98.98 min
Inclination
98.2450°
Eccentricity
0.0013130
Mean motion
14.54850827 rev/d
Perigee alt
700.5 km
Apogee alt
719.2 km
Semi-major
7,088.0 km
B*
4.3528e-5
RAAN
328.7370°
Arg perigee
358.1363°
Mean anomaly
1.9783°
Rev number
87,816

§ Raw data

PROBA-21 36037U 09059B   26145.06304273  .00000142  00000+0  43528-4 0  99972 36037  98.2450 328.7370 0013130 358.1363   1.9783 14.54850827878168

JSON: /api/v1/satellites/36037 · /tle

For live sub-satellite position, see the globe view (requires WebGL).

§ Visibility from observer

Set your observer location to see the next 7 days of passes ≥ 10°. The values pass through the URL so the page stays shareable.

No JS? Fill the form by hand. The geolocation button needs JavaScript.

§ Radio — SatNOGS DB

ModeDescriptionDownlinkUplink
BPSK S-Band 128000 BPSK Experimental 2.235 GHz
BPSK S-Band BPSK 2.235 GHz

2 transmitters · refreshed weekly from db.satnogs.org